This is the latest recevied weather packets stored in our database for station/object ALTO-WX. If no packets are shown the sender has not sent any weather packets the latest 10 day(s).
| Time | Temp. | Humidity | Pressure | Rain* | Wind** | Luminosity | Snow |
|---|---|---|---|---|---|---|---|
| 1777491051 | 8.33° C | 91% | 981.4 hPa | 1.02 mm | - | - | - |
| 1777490134 | 8.33° C | 91% | 981.4 hPa | 2.03 mm | - | - | - |
| 1777489257 | 8.33° C | 91% | 981.4 hPa | 2.03 mm | - | - | - |
| 1777488334 | 8.89° C | 88% | 981.9 hPa | 1.02 mm | - | - | - |
| 1777487455 | 10° C | 85% | 980.8 hPa | 1.02 mm | - | - | - |
| 1777486533 | 10° C | 85% | 980.8 hPa | 0.51 mm | - | - | - |
| 1777485659 | 9.44° C | 85% | 980.8 hPa | 0.51 mm | - | - | - |
| 1777484733 | 9.44° C | 85% | 982.2 hPa | 0.51 mm | - | - | - |
| 1777483848 | 9.44° C | 89% | 981.9 hPa | 0.51 mm | - | - | - |
| 1777482933 | 9.44° C | 89% | 981.8 hPa | 1.02 mm | - | - | - |
| 1777482058 | 8.89° C | 89% | 981.8 hPa | 1.02 mm | - | - | - |
| 1777481133 | 8.89° C | 85% | 982.1 hPa | 0 mm | - | - | - |
| 1777480252 | 8.89° C | 88% | 982.2 hPa | 0.25 mm | - | - | - |
| 1777479333 | 8.89° C | 88% | 982.2 hPa | 0.25 mm | - | - | - |
| 1777478461 | 8.89° C | 88% | 982.2 hPa | 0.25 mm | - | - | - |
| 1777477533 | 9.44° C | 90% | 982.7 hPa | 0 mm | - | - | - |
| 1777476648 | 10° C | 76% | 983.4 hPa | 0 mm | - | - | - |
| 1777475733 | 10° C | 76% | 983.4 hPa | 0 mm | - | - | - |
| 1777474860 | 10° C | 76% | 983.4 hPa | 0 mm | - | - | - |
| 1777473932 | 10.56° C | 80% | 983 hPa | 0 mm | - | - | - |
| 1777473049 | 10.56° C | 84% | 982.7 hPa | 0 mm | - | - | - |
| 1777472134 | 10° C | 84% | 982.7 hPa | 0 mm | - | - | - |
| 1777471267 | 10° C | 84% | 982.7 hPa | 0 mm | - | - | - |
| 1777470333 | 9.44° C | 79% | 983.7 hPa | 0 mm | - | - | - |
| 1777469452 | 9.44° C | 79% | 983.7 hPa | 0 mm | - | - | - |
* Rain latest hour (hover to see other rain measurements)
** Current wind speed in m/s (hover to see current wind gust speed)